Skip Page Navigation
NASA JPL Caltech
NASA Logo - Jet Propulsion Laboratory + View the NASA Portal
+ Center for Near-Earth Object Studies
JPL Home Earth Solar System Stars & Galaxies Technology
JPL Solar System Dynamics
BODIES ORBITS EPHEMERIDES TOOLS PHYSICAL DATA DISCOVERY FAQ SITE MAP
JPL Small-Body Database Browser
Search: [ help ]  
382019 (2011 BM62)
Classification: Main-belt Asteroid          SPK-ID: 2382019
Ephemeris | Orbit Diagram | Orbital Elements | Mission Design | Physical Parameters | Discovery Circumstances | Close-Approach Data ]

[ show orbit diagram ]
Orbital Elements at Epoch 2459000.5 (2020-May-31.0) TDB
Reference: JPL 11 (heliocentric ecliptic J2000)
 Element Value Uncertainty (1-sigma)   Units 
e .124488676040305 1.1252e-07  
a 2.387075083656239 4.7316e-08 au
q 2.089911266883074 2.496e-07 au
i 3.345155930434872 7.4767e-06 deg
node 102.8487191044319 0.00017495 deg
peri 97.84327485556307 0.00017828 deg
M 149.1387126819984 3.2373e-05 deg
tp 2458442.434165044538
(2018-Nov-19.93416504)
0.00011636 TDB
period 1347.092897417882
3.69
4.0052e-05
1.097e-07
d
yr
n .2672421483997508 7.9458e-09 deg/d
Q 2.684238900429404 5.3206e-08 au
  Orbit Determination Parameters
   # obs. used (total)      125  
   data-arc span      4050 days (11.09 yr)  
   first obs. used      2006-12-12  
   last obs. used      2018-01-13  
   planetary ephem.      DE431  
   SB-pert. ephem.      SB431-N16  
   condition code      0  
   norm. resid. RMS      .64773  
   source      ORB  
   producer      Otto Matic  
   solution date      2019-Jul-14 13:58:26  

Additional Information
 Earth MOID = 1.09019 au 
 Jupiter MOID = 2.27551 au 
 T_jup = 3.522 
[ show covariance matrix ]

Ephemeris | Orbit Diagram | Orbital Elements | Mission Design | Physical Parameters | Discovery Circumstances | Close-Approach Data ]

Physical Parameter Table
Parameter Symbol Value Units Sigma Reference Notes
absolute magnitude H 17.6   n/a MPO434366  

382019 (2011 BM62)          Discovered 2006-Dec-12 by Mt. Lemmon Survey at Mount Lemmon
Reference: Last Updated: 2013-12-19

[ show close-approach data ]
Alternate Designations
 2011 BM62 = 2006 XZ41 
Ephemeris | Orbit Diagram | Orbital Elements | Mission Design | Physical Parameters | Discovery Circumstances | Close-Approach Data ]
ABOUT SSD CREDITS/AWARDS PRIVACY/COPYRIGHT GLOSSARY LINKS
FirstGov 2020-Aug-11 17:27 UT
(server date/time)  
NASA Home Page
Site Manager:   Ryan S. Park
Webmaster  Alan B. Chamberlin